Regional Weather Roundup
Issued by NWS Northern Indiana

Home | Current Version | Previous Version | Text Only | Print | Product List | Glossary Off
Versions: 1 2 3 4 5 6 7 8 9 10 11 12 13 14 15 16 17 18 19 20 21 22 23 24 25 26 27 28 29 30 31 32 33 34 35 36 37 38 39 40 41 42 43 44 45 46 47 48 49 50

000
ASUS43 KIWX 300210
RWRIWX

KIWX WEATHER ROUNDUP
NATIONAL WEATHER SERVICE NORTHERN INDIANA
1000 PM EDT WED MAR 29 2017

NOTE: "FAIR" INDICATES FEW OR NO CLOUDS BELOW 12,000 FEET WITH NO
SIGNIFICANT WEATHER AND/OR OBSTRUCTIONS TO VISIBILITY.

* THESE STATIONS ARE NOT UNDER NWS QUALITY CONTROL. THEY ALSO MAY NOT
  REPORT WEATHER SUCH AS PRECIPITATION OR FOG.

INZ001>027-300300-
NORTHERN INDIANA

CITY           SKY/WX    TMP DP  RH WIND       PRES   REMARKS
GARY*          LGT RAIN  48  39  71 E9        30.07F
VALPARAISO     CLOUDY    49  39  68 E15       30.07R
MICHIGAN CITY* CLOUDY    46  34  61 E6        30.09F
LAPORTE*       CLOUDY    46  36  68 E14       30.08S
KNOX*          CLOUDY    50  10  20 E17       30.06R
SOUTH BEND     CLOUDY    47  37  68 NE7       30.12R
GOSHEN         CLOUDY    49  30  48 E15       30.09R
MONTICELLO*    CLOUDY    52  37  57 E12G18    30.00F
LOGANSPORT*    CLOUDY    50  36  57 E15G21    30.04R
WARSAW*        CLOUDY    46  30  53 E15G22    30.08F
ANGOLA*        MOCLDY    46  34  61 VRB7      30.15R
FORT WAYNE     CLOUDY    48  31  51 E23G30    30.09F
HUNTINGTON*    CLOUDY    47  32  56 E13G18    30.07F
PERU/GRISSOM   CLOUDY    51  36  57 E17G26    30.02F
MARION*        CLOUDY    49  37  61 E14G26    30.04F

$$
INZ028>050-300300-
CENTRAL INDIANA

CITY           SKY/WX    TMP DP  RH WIND       PRES   REMARKS
LAFAYETTE      LGT RAIN  53  41  63 E23G29    29.98S
KOKOMO*        CLOUDY    50  39  66 E17       30.03F
MUNCIE*        PTCLDY    52  41  66 E16       30.04F
INDIANAPOLIS   CLOUDY    55  44  66 E15       30.00S

$$
MIZ043>046-050>051-056>058-064>065-071>073-077>080-300300-
SOUTHWEST LOWER MICHIGAN

CITY           SKY/WX    TMP DP  RH WIND       PRES   REMARKS
BATTLE CREEK   CLOUDY    47  36  65 NE8       30.18R
BENTON HARBOR  RAIN      49  35  58 E18G29    30.13R
COLDWATER*     CLOUDY    47  34  61 E5        30.16R
HILLSDALE*     LGT RAIN  45  32  61 E10       30.11F
HOLLAND        CLOUDY    47  32  56 E13       30.19R
GRAND RAPIDS   CLOUDY    42  34  73 NE8       30.22R
KALAMAZOO      CLOUDY    50  34  54 E6        30.18R
STURGIS*       CLOUDY    46  36  69 E7        30.14R
THREE RIVERS*  CLOUDY    48  35  60 E12       30.15R

$$
OHZ001>008-015>018-024>025-300300-
NORTHWEST OHIO

CITY           SKY/WX    TMP DP  RH WIND       PRES   REMARKS
WAUSEON*       CLOUDY    46  34  61 E13G22    30.13S
DEFIANCE       MOCLDY    46  33  60 E12       30.13S
FINDLAY        CLOUDY    47  31  53 E15G22    30.11F
TOLEDO EXPRESS CLOUDY    46  32  58 E13G18    30.14F
TOLEDO METCALF CLOUDY    46  33  60 E13       30.15F
LIMA           PTCLDY    46  33  60 E16       30.10F

$$
AND FOR LAKE MICHIGAN COASTAL AND OPEN LAKE BUOY OBSERVATIONS

STATION/POSITION TEMP    WIND        PRES    VSBY  WAVE
                 AIR SEA DIR/SP/G                  HT/PER
                 (F)     (DEG/KT/KT) (MB)    (MI)  (FT/S)
CALUMET HARBOR    44      40/ 11/ 14 1017.8S
MICHIGAN CITY     49      70/ 16/ 20   N/A
BURNS HARBOR      47      60/ 10/ 19 1019.6

$$
&&



USA.gov is the U.S. government's official web portal to all federal, state and local government web resources and services.